Weather in Ocheretyne

Ukraine / Donetsk Region     48°14′33″N   37°36′37″E
temp.,
°C
wind,
m/s
gust,
m/s
humid.,
%
clouds,
%
prec.,
mm/h
press.,
hPa
HPBL,
m
14 may, fri
fri1400:00+14e358762 0.0 101373
03:00+13e499293 0.0 1012167
06:00+14ese41287100 0.0 1011315
09:00+19sse61065100 0.0 1011506
12:00+23se5654100 0.0 1011738
15:00+26s574322 0.0 10101412
18:00+24s575693 0.0 1010324
21:00+17s47703 0.0 101188
15 may, sat
sat1500:00+15sw35820 0.0 101168
03:00+14w3680100 0.0 101293
06:00+14wnw2380100 0.0 101370
09:00+20w22565 0.0 1014533
12:00+23wsw234317 0.0 10141324
15:00+24sw34415 0.0 10141966
18:00+24wsw134397 0.0 10131774
21:00+18ne2257100 0.0 101313
16 may, sun
sun1600:00+17ne226496 0.0 101312
03:00+15nne347176 0.0 101346
06:00+15ne49788 0.0 1012176
09:00+21ene576667 0.0 1012523
12:00+26ene555516 0.0 10101319
15:00+27ne555042 0.0 10091944
18:00+25ene585990 0.0 1008364
21:00+20ene3564100 0.0 100864
17 may, mon
mon1700:00+17ene347597 0.0 100751
03:00+16e4117522 0.0 1006195
06:00+16ese4106880 0.0 1006234
09:00+21ese675190 0.0 1006481
12:00+25se5642100 0.0 1006937
15:00+26s4546100 0.0 10061348
18:00+25sse45555 0.0 1006621
21:00+18ssw4884100 0.0 1007161
18 may, tue
tue1800:00+16ssw4109666 0.0 1008223
03:00+16wsw379670 0.0 1008134
06:00+16wsw269660 0.0 1009204
09:00+21wsw3470100 0.0 1010785
12:00+24wsw4553100 0.0 10101518
15:00+25sw5646100 0.0 10102327
18:00+23wsw465718 0.0 1010357
21:00+19ssw357010 0.0 1012100